Regional Weather Roundup
Issued by NWS

Home | Current Version | Previous Version | Graphics & Text | Print | Product List | Glossary On
Versions: 1 2 3 4 5 6 7 8 9 10 11 12 13 14 15 16 17 18 19 20 21 22 23 24 25 26 27 28 29 30 31 32 33 34 35 36 37 38 39 40 41 42 43 44 45 46 47 48 49 50
000
ASUS43 KOAX 252102
RWRNE

WEATHER ROUNDUP FOR NEBRASKA
NATIONAL WEATHER SERVICE OMAHA NE
400 PM CDT SUN SEP 25 2016

NOTES: SATELLITE DATA IS BEING USED TO AUGMENT CLOUD COVER ABOVE
       12000 FEET.
       "FAIR" INDICATES FEW OR NO CLOUDS BELOW 12,000 FEET WITH NO
       SIGNIFICANT WEATHER AND/OR OBSTRUCTIONS TO VISIBILITY.

  * THESE STATIONS DO NOT REPORT WEATHER SUCH AS RAIN...SNOW OR FOG.

NEZ001>004-019>022-054>056-252200-
NEBRASKA PANHANDLE

CITY           SKY/WX    TMP DP  RH WIND       PRES   REMARKS
SCOTTSBLUFF    MOSUNNY   66  36  32 NW16G31   30.35F
ALLIANCE       SUNNY     64  34  32 NW21G30   30.33F
CHADRON        SUNNY     65  24  21 NW21G32   30.33F
KIMBALL        SUNNY     63  36  37 N16       30.38S
SIDNEY         LGT RAIN  66  34  30 N18G29    30.36F
$$

NEZ057>060-069>072-079>082-252200-
SOUTHWEST NEBRASKA

CITY           SKY/WX    TMP DP  RH WIND       PRES   REMARKS
NORTH PLATTE   SUNNY     73  26  17 N18G35    30.26F
IMPERIAL       SUNNY     70  27  20 N28G36    30.30F
LEXINGTON      SUNNY     71  28  20 NW17G29   30.24S
MCCOOK         SUNNY     73  22  14 NW22G33   30.25F
OGALLALA       SUNNY     71  31  22 NW22G33   30.30F
$$

NEZ005>010-023>029-035>040-094-252200-
NORTH CENTRAL NEBRASKA

CITY           SKY/WX    TMP DP  RH WIND       PRES   REMARKS
VALENTINE      SUNNY     67  26  21 NW25G36   30.24S
AINSWORTH      SUNNY     65  32  28 NW17G33   30.23F
BROKEN BOW     SUNNY     70  20  15 NW22G32   30.23F
O`NEILL        SUNNY     68  27  21 NW24G31   30.19S
ORD            SUNNY     69  27  20 NW20G32   30.19F
THEDFORD       SUNNY     69  24  18 NW23G37   30.26S
$$

NEZ041-046>049-061>064-073>077-083>087-252200-
SOUTH CENTRAL NEBRASKA

CITY           SKY/WX    TMP DP  RH WIND       PRES   REMARKS
GRAND ISLAND   SUNNY     72  34  24 NW21G28   30.19F
AURORA         SUNNY     71  36  27 NW16G24   30.18F
HASTINGS       SUNNY     71  34  25 N23G30    30.21F
HEBRON         SUNNY     73  42  32 NW15G26   30.17S
HOLDREGE       SUNNY     70  27  20 N16G26    30.23S
KEARNEY *      SUNNY     72  30  21 N15G31    30.21S
YORK           SUNNY     72  41  33 NW16G24   30.17S
$$

NEZ011>018-030>034-042>045-252200-
NORTHEAST NEBRASKA

CITY           SKY/WX    TMP DP  RH WIND       PRES   REMARKS
NORFOLK        SUNNY     70  38  31 NW22G30   30.13F
ALBION         SUNNY     69  33  27 NW20G31   30.17S
BLAIR          CLOUDY    69  47  45 NW14G23   30.12S
FREMONT        PTSUNNY   68  46  45 NW23G29   30.13S
TEKAMAH        PTSUNNY   70  47  43 NW21      30.11S
WAYNE          CLOUDY    70  47  43 NW18G26   30.12F
$$

NEZ050>053-065>068-078-088>093-252200-
SOUTHEAST NEBRASKA

CITY           SKY/WX    TMP DP  RH WIND       PRES   REMARKS
LINCOLN        SUNNY     74  45  35 NW21G29   30.13F
OMAHA EPPLEY   CLOUDY    70  48  45 NW21      30.11S
BEATRICE       MOSUNNY   74  49  41 NW21      30.14F
FALLS CITY     CLOUDY    70  54  56 VRB6      30.11F
NEBRASKA CITY  MOSUNNY   70  34  26 NW17G23   30.12S
PLATTSMOUTH    MOSUNNY   71  42  35 NW15G21   30.12S
$$

NEZ044-045-051>053-067-252200-
OMAHA AREA

CITY           SKY/WX    TMP DP  RH WIND       PRES   REMARKS
OMAHA EPPLEY   CLOUDY    70  48  45 NW21      30.11S
BLAIR          CLOUDY    69  47  45 NW14G23   30.12S
FREMONT        PTSUNNY   68  46  45 NW23G29   30.13S
MILLARD        MOSUNNY   71  49  44 W14G21    30.11F
OFFUTT AFB     PTSUNNY   70  48  46 NW15G22   30.11S
PLATTSMOUTH    MOSUNNY   71  42  35 NW15G21   30.12S
WAHOO          FAIR      70  44  38 N16G23    30.13S
$$




USA.gov is the U.S. government's official web portal to all federal, state and local government web resources and services.